Chillicothe, MO

7:18 AM CST on December 16, 2019 (GMT -0600)
Chillicothe

Weather History for KCDJ - October, 2019

Change the Weather History Date:

Saturday, October 26, 2019

  Actual Average (WUND) Record (WUND)
Temperature  
Mean Temperature 44 °F -  
Max Temperature 55 °F - - (-1)
Min Temperature 33 °F - - (-1)
Degree Days  
Heating Degree Days 21    
Moisture  
Dew Point 37 °F    
Average Humidity 84    
Maximum Humidity 97    
Minimum Humidity 62    
Precipitation  
Precipitation 0.00 in - - ()
Sea Level Pressure  
Sea Level Pressure 29.90 in    
Wind  
Wind Speed 1 mph (North)    
Max Wind Speed 4 mph    
Max Gust Speed -    
Averages and records for this station are not official NWS values.
T = Trace of Precipitation, MM = Missing Value Source: NWS Daily Summary

Daily Weather History Graph

Daily Weather History Graph

Search for Another Location

Airport or City:

Astronomy

Oct. 26, 2019 Rise Set
Actual Time 7:36 AM CDT 6:19 PM CDT
Civil Twilight 7:08 AM CDT 6:47 PM CDT
Nautical Twilight 6:36 AM CDT 7:19 PM CDT
Astronomical Twilight 6:05 AM CDT 7:50 PM CDT
Moon 5:32 AM CDT (10/26) 5:55 PM CDT (10/26)
Length of Visible Light 11h 39m
Length of Day
10h 43m
Waning Crescent, 3% of the Moon is Illuminated
Oct 26
Waning Crescent
Oct 27
New
Nov 4
First Quarter
Nov 12
Full
Nov 19
Last Quarter

Hourly Weather History & Observations

Time (CDT) Temp. Windchill Dew Point Humidity Pressure Visibility Wind Dir Wind Speed Gust Speed Precip Events Conditions
12:52 AM 34.0 °F - 33.1 °F 96% 30.17 in - Calm Calm - N/A   Unknown
1:52 AM 36.0 °F - 33.1 °F 89% 30.15 in - Calm Calm - N/A   Unknown
3:52 AM 34.0 °F 31.0 °F 32.0 °F 92% 30.09 in - NNW 3.5 mph - N/A   Unknown
4:52 AM 34.0 °F - 32.0 °F 92% 30.06 in - Calm Calm - N/A   Unknown
5:52 AM 33.1 °F - 32.0 °F 96% 30.04 in - Calm Calm - N/A   Unknown
6:52 AM 33.1 °F 30.0 °F 32.0 °F 96% 30.02 in - North 3.5 mph - N/A   Unknown
8:52 AM 35.1 °F - 32.0 °F 89% 29.96 in - Calm Calm - N/A   Unknown
9:52 AM 39.9 °F - 36.0 °F 86% 29.96 in - Calm Calm - N/A   Unknown
10:52 AM 43.0 °F 41.3 °F 37.9 °F 82% 29.94 in - NNE 3.5 mph - N/A   Unknown
12:52 PM 48.9 °F - 39.9 °F 71% 29.86 in - ENE 3.5 mph - N/A   Unknown
1:52 PM 52.0 °F - 41.0 °F 66% 29.81 in - NE 3.5 mph - N/A   Unknown
2:52 PM 54.0 °F - 42.1 °F 64% 29.78 in - NNW 3.5 mph - N/A   Unknown
3:52 PM 54.0 °F - 42.1 °F 64% 29.77 in - North 3.5 mph - N/A   Unknown
4:52 PM 55.0 °F - 42.1 °F 62% 29.76 in - West 3.5 mph - N/A   Unknown
5:52 PM 54.0 °F - 42.1 °F 64% 29.75 in - NNE 3.5 mph - N/A   Unknown
6:52 PM 46.9 °F - 43.0 °F 86% 29.77 in - Calm Calm - N/A   Unknown
7:52 PM 43.0 °F - 41.0 °F 93% 29.77 in - Calm Calm - N/A   Unknown
8:52 PM 41.0 °F - 39.9 °F 96% 29.77 in - Calm Calm - N/A   Unknown
9:52 PM 39.9 °F - 37.9 °F 93% 29.78 in - Calm Calm - N/A   Unknown
10:52 PM 37.9 °F - 37.0 °F 97% 29.79 in - Calm Calm - N/A   Unknown
11:52 PM 37.9 °F - 37.0 °F 97% 29.80 in - Calm Calm - N/A   Unknown